Regional Weather Roundup
Issued by NWS Cleveland, OH

Home | Current Version | Previous Version | Graphics & Text | Print | Product List | Glossary On
Versions: 1 2 3 4 5 6 7 8 9 10 11 12 13 14 15 16 17 18 19 20 21 22 23 24 25 26 27 28 29 30 31 32 33 34 35 36 37 38 39 40 41 42 43 44 45 46 47 48 49 50
000
ASUS41 KCLE 280210
RWRCLE
OHIO REGIONAL WEATHER ROUNDUP
NATIONAL WEATHER SERVICE WILMINGTON, OH
1000 PM EDT MON JUL 27 2015

NOTE: "FAIR" INDICATES FEW OR NO CLOUDS BELOW 12,000 FEET WITH NO
SIGNIFICANT WEATHER AND/OR OBSTRUCTIONS TO VISIBILITY.

OHZ001>008-015>018-024>027-034-035-043-044-280300-
   NORTHWEST OHIO

CITY           SKY/WX    TMP DP  RH WIND       PRES   REMARKS
DEFIANCE       CLEAR     75  63  66 E3        30.01R
FINDLAY        CLEAR     78  61  55 NE9       30.01R
TOLEDO EXPRESS CLEAR     70  62  76 E3        30.01S
TOLEDO EXEC    CLEAR     77  61  57 CALM      30.02R
LIMA           CLEAR     73  64  73 NE5       30.01R
$$

OHZ009>014-019>023-028>033-038-089-280300-
   NORTHEAST OHIO

CITY           SKY/WX    TMP DP  RH WIND       PRES   REMARKS
CLE-HOPKINS    MOCLDY    75  67  76 N6        30.03R
CLE-LAKEFRONT  CLEAR     76  70  82 NE7       30.00R
CUY CO. ARPT   MOCLDY    75  64  69 E7        30.03R
LORAIN-ELYRIA  CLEAR     72  62  71 NE5       30.02R
ASHTABULA      CLEAR     69  66  90 CALM      30.04R
AKRON-CANTON   PTCLDY    75  64  68 NE8       30.03R
WOOSTER        PTCLDY    74  64  71 N6        30.03R
MANSFIELD      CLEAR     73  63  70 N7        30.04R
YOUNGSTOWN     PTCLDY    75  63  66 NE7       30.03R
$$

OHZ042-051>053-060>062-070>072-077>081-280300-
  SOUTHWEST OHIO

CITY           SKY/WX    TMP DP  RH WIND       PRES   REMARKS
CINC-COVINGTON PTCLDY    81  71  71 E7        29.98R
CINC-LUNKEN    CLEAR     74  73  97 CALM      29.97R
HAMILTON       CLEAR     75  72  90 E3        29.98R
DAYTON         MOCLDY    77  72  84 CALM      30.02R
WRIGHT-PAT AFB CLEAR     77  73  87 N2        30.00R
DAYTON GENERAL   N/A    N/A N/A N/A MISG      29.99R
WILMINGTON     CLOUDY    77  72  84 CALM      30.00R
$$

OHZ036-037-039>041-045>050-054>059-063>069-073>076-082>088-280300-
  CENTRAL AND SOUTHEAST OHIO

CITY           SKY/WX    TMP DP  RH WIND       PRES   REMARKS
COLUMBUS       MOCLDY    77  64  64 CALM      29.99R
OSU AIRPORT    PTCLDY    75  65  70 CALM      30.00R
BOLTON FIELD   MOCLDY    77  68  73 NE5       30.01R
RICKENBACK AFB CLOUDY    77  71  82 CALM      29.99R
NEWARK         CLOUDY    75  68  78 CALM      30.00R
MARION         CLEAR     73  66  78 NE6       30.02R
LANCASTER      CLEAR     73  70  90 W3        30.00R
ZANESVILLE     PTCLDY    77  67  71 CALM      30.00R
NEW PHILLY     PTCLDY    70  67  90 CALM      30.01R
$$


USA.gov is the U.S. government's official web portal to all federal, state and local government web resources and services.